Regional Weather Roundup
Issued by NWS

Home | Current Version | Previous Version | Graphics & Text | Print | Product List | Glossary Off
Versions: 1 2 3 4 5 6 7 8 9 10 11 12 13 14 15 16 17 18 19 20 21 22 23 24 25 26 27 28 29 30 31 32 33 34 35 36 37 38 39 40 41 42 43 44 45 46 47 48 49 50

000
ASUS43 KDTX 280610
RWRMI
MICHIGAN HOURLY REGIONAL WEATHER ROUNDUP
NATIONAL WEATHER SERVICE DETROIT/PONTIAC MI
200 AM EDT THU APR 28 2016

NOTE: "FAIR" INDICATES FEW OR NO CLOUDS BELOW 12,000 FEET WITH NO
SIGNIFICANT WEATHER AND/OR OBSTRUCTION TO VISIBILITY.

MIZ047>049-052>055-059>063-066>070-074>076-081>083-280700-
SOUTHEAST LOWER MICHIGAN

CITY           SKY/WX    TMP DP  RH WIND       PRES   REMARKS
ADRIAN         CLOUDY    45  26  47 E12       29.95R
6HR MIN TEMP:  45; 6HR MAX TEMP:  51;

ALMA           CLOUDY    42  22  46 NE8       29.99S
ANN ARBOR      CLOUDY    44  19  36 E7        29.96S
BAD AXE        PTCLDY    34  26  72 E5        30.02R WCI  30
CARO           PTCLDY    37  18  45 NE6       29.99F WCI  32
DETROIT CITY   CLOUDY    43  17  35 NE9       29.98R
6HR MIN TEMP:  42; 6HR MAX TEMP:  51;

DETROIT        CLOUDY    44  18  35 N7        29.98R
6HR MIN TEMP:  44; 6HR MAX TEMP:  54;

FLINT          CLOUDY    43  18  36 E8        29.99S
6HR MIN TEMP:  43; 6HR MAX TEMP:  54;

GROSSE ILE     CLOUDY    45  27  49 NE6       29.96R
HILLSDALE      CLOUDY    46  27  47 E10       29.93R
6HR MIN TEMP:  46; 6HR MAX TEMP:  52;

HOWELL         CLOUDY    45  12  27 E3        29.97R

CITY           SKY/WX    TMP DP  RH WIND       PRES   REMARKS
JACKSON        CLOUDY    48  50 100 E9        29.94R
6HR MIN TEMP:  48; 6HR MAX TEMP:  55;

LAMBERTVILLE   CLOUDY    46  32  56 E6        29.95S
6HR MIN TEMP:  46; 6HR MAX TEMP:  52;

LANSING        CLOUDY    46  20  35 NE10      29.97R
6HR MIN TEMP:  46; 6HR MAX TEMP:  53;

LAPEER         FAIR      37  18  46 CALM      30.00R
6HR MIN TEMP:  37; 6HR MAX TEMP:  48;

MASON          CLOUDY    46  24  43 E7        29.95S
MONROE         CLOUDY    44  28  54 NE10      29.95F
6HR MIN TEMP:  44; 6HR MAX TEMP:  50;

MT. CLEMENS    CLOUDY    40  21  47 NE10      29.97R WCI  33
6HR MIN TEMP:  40; 6HR MAX TEMP:  50;

PONTIAC        MOCLDY    41  14  33 E7        29.97R
6HR MIN TEMP:  41; 6HR MAX TEMP:  51;

PORT HOPE        N/A     38  31  76 E9        30.01R WCI  31
6HR MIN TEMP:  33; 6HR MAX TEMP:  38;

PORT HURON     CLOUDY    37  30  75 NE7       29.99S WCI  32
TRI CITIES     MOCLDY    41  22  46 E8        30.02R
6HR MIN TEMP:  41; 6HR MAX TEMP:  51;

MIDLAND        FAIR      40  25  55 NE3       30.01R
6HR MIN TEMP:  40; 6HR MAX TEMP:  48;

TROY           MOCLDY    42  15  33 NE6       30.00S
SAGINAW HB     MOCLDY    37  23  56 NE6       30.01R WCI  33
$$
MIZ043>046-050>051-056>058-064>065-071>073-077>080-280700-
SOUTHWEST LOWER MICHIGAN

CITY           SKY/WX    TMP DP  RH WIND       PRES   REMARKS
BATTLE CREEK   CLOUDY    51  30  44 E7        29.93R
6HR MIN TEMP:  51; 6HR MAX TEMP:  58;

BENTON HARBOR  LGT RAIN  48  38  68 E16       29.87F
6HR MIN TEMP:  48; 6HR MAX TEMP:  58; 6HR PCP:  0.12;

BIG RAPIDS     CLOUDY    43  20  41 E12       29.98S
6HR MIN TEMP:  43; 6HR MAX TEMP:  52;

COLDWATER      CLOUDY    48  30  49 E7        29.93S
6HR MIN TEMP:  48; 6HR MAX TEMP:  55;

FREMONT        FAIR      47  23  40 E13       29.94F
HOLLAND        CLOUDY    51  35  54 E14       29.91F
6HR MIN TEMP:  51; 6HR MAX TEMP:  56;

GRAND RAPIDS   CLOUDY    49  32  52 E13       29.95R
6HR MIN TEMP:  49; 6HR MAX TEMP:  55;

IONIA          FAIR      45  23  42 NE13G18   29.95S
6HR MIN TEMP:  45; 6HR MAX TEMP:  52;

KALAMAZOO      CLOUDY    52  29  41 E10       29.92R
6HR MIN TEMP:  52; 6HR MAX TEMP:  58;

LUDINGTON      CLOUDY    46  26  46 E8        29.95S
6HR MIN TEMP:  46; 6HR MAX TEMP:  50;

MARSHALL       CLOUDY    49  27  42 E8        29.93R
6HR MIN TEMP:  49; 6HR MAX TEMP:  56;

MOUNT PLEASANT CLOUDY    41  25  53 E6        30.00R
6HR MIN TEMP:  41; 6HR MAX TEMP:  51;

MUSKEGON       CLOUDY    50  28  42 E14       29.93S
6HR MIN TEMP:  50; 6HR MAX TEMP:  56;

SOUTH HAVEN    DRIZZLE   48  42  77 SE8       29.90R
$$
MIZ016>042-280700-
NORTHERN LOWER MICHIGAN

CITY           SKY/WX    TMP DP  RH WIND       PRES   REMARKS
ALPENA         PTCLDY    34  27  75 N6        30.04R WCI  29
6HR MIN TEMP:  33; 6HR MAX TEMP:  43;

BEAVER ISLAND  CLOUDY    35  28  75 NE7       30.04S WCI  29
6HR MIN TEMP:  35; 6HR MAX TEMP:  43;

BELLAIRE       CLOUDY    38  21  49 CALM      30.04R
6HR MIN TEMP:  38; 6HR MAX TEMP:  48;

CADILLAC       CLOUDY    39  23  52 E6        29.98S WCI  35
CHARLEVOIX     MOCLDY    38  20  48 CALM      30.07R
FRANKFORT      MOCLDY    43  24  47 E7        29.98S
GAYLORD        CLOUDY    36  20  52 CALM      30.01R
6HR MIN TEMP:  36; 6HR MAX TEMP:  50;

GRAYLING       PTCLDY    37  26  66 CALM      30.04R
6HR MIN TEMP:  37; 6HR MAX TEMP:  51;

HARBOR SPRINGS CLOUDY    35  21  57 E5        30.04R WCI  31
HOUGHTON LAKE  CLOUDY    37  30  75 CALM      30.02R
6HR MIN TEMP:  37; 6HR MAX TEMP:  51;

MANISTEE       CLOUDY    43  18  36 E10       29.97F
OSCODA         CLOUDY    32  26  79 NW3       30.02R
6HR MIN TEMP:  31; 6HR MAX TEMP:  39;

PELLSTON       CLOUDY    35  24  64 NE3       30.04S
6HR MIN TEMP:  35; 6HR MAX TEMP:  46;

ROGERS CITY    CLOUDY    35  29  79 N3        30.05S
TRAVERSE CITY  CLOUDY    38  31  76 E3        30.01R
6HR MIN TEMP:  38; 6HR MAX TEMP:  47;

$$
MIZ007>008-015-280700-
EASTERN UPPER MICHIGAN

CITY           SKY/WX    TMP DP  RH WIND       PRES   REMARKS
KINROSS          N/A     34  30  86 N7        30.05S WCI  28
6HR MIN TEMP:  34; 6HR MAX TEMP:  37;

MACKINAC ISLAN CLOUDY    34  28  78 NE10      30.04F WCI  26
6HR MIN TEMP:  34; 6HR MAX TEMP:  41;

NEWBERRY       CLOUDY    31  29  92 N5        30.06R WCI  26
6HR MIN TEMP:  30; 6HR MAX TEMP:  38;

S. S. MARIE    CLOUDY    33  27  78 CALM      30.05F
6HR MIN TEMP:  31; 6HR MAX TEMP:  38;

MUNISING         N/A     37  29  72 N7        30.07R WCI  32
6HR MIN TEMP:  35; 6HR MAX TEMP:  37;

$$
MIZ004>006-011>014-085-280700-
CENTRAL UPPER MICHIGAN

CITY           SKY/WX    TMP DP  RH WIND       PRES   REMARKS
MANISTIQUE     CLOUDY    32  24  72 N12       30.03F WCI  23
6HR MIN TEMP:  32; 6HR MAX TEMP:  42;

ESCANABA       CLOUDY    36  21  55 NE7G16    30.05S WCI  30
6HR MIN TEMP:  34; 6HR MAX TEMP:  45;

MENOMINEE      CLOUDY    37  21  52 E21G31    30.02R WCI  27
6HR MIN TEMP:  37; 6HR MAX TEMP:  45;

SAWYER-GWINN   CLOUDY    32  18  54 NE12      30.05S WCI  23
6HR MIN TEMP:  30; 6HR MAX TEMP:  34;

$$
MIZ001>003-009>011-084-280700-
WESTERN UPPER MICHIGAN

CITY           SKY/WX    TMP DP  RH WIND       PRES   REMARKS
IRON MOUNTAIN  CLOUDY    35   7  31 NE8       30.00F WCI  29
6HR MIN TEMP:  34; 6HR MAX TEMP:  48;

HOUGHTON       CLOUDY    35  15  44 N8        30.06S WCI  29
6HR MIN TEMP:  32; 6HR MAX TEMP:  43;

COPPER HARBOR    N/A     32  26  78 CALM      30.10R
6HR MIN TEMP:  31; 6HR MAX TEMP:  40;

IRONWOOD       MOCLDY    37   9  30 E10       30.00S WCI  30
6HR MIN TEMP:  37; 6HR MAX TEMP:  45;

$$

ABBREVIATIONS USED IN REMARKS
   TC - TEMPERATURE IN CELSIUS
  WCI - WIND CHILL INDEX
   HX - HEAT INDEX
  VSB - VISIBILITY





USA.gov is the U.S. government's official web portal to all federal, state and local government web resources and services.